Location: Unspecified
(32.7696°S, 149.9937°E)
Time: 02:29:31
(UTC+11:00)

BlueWalker 3 - Visible Passes

Search period start: 07 December 2025 00:00
Search period end: 17 December 2025 00:00
Orbit: 455 x 462 km, 53.2° (Epoch: 05 December)

Date Brightness Start Highest point End Pass type
(mag) Time Alt. Az. Time Alt. Az. Time Alt. Az.
08 Dec 5.2 01:31:22 10° S 01:31:22 10° S 01:31:30 10° S visible
09 Dec 5.3 00:57:07 10° S 00:57:07 10° S 00:57:11 10° S visible
10 Dec 5.1 23:47:56 11° SSE 23:47:56 11° SSE 23:48:05 10° SSE visible
11 Dec 4.5 23:12:31 15° SSE 23:12:31 15° SSE 23:13:24 10° SSE visible
12 Dec4.321:00:55ESE21:00:55ESE20:55:05NNEvisible
12 Dec 3.0 22:33:45 28° W 22:35:10 41° SW 22:38:39 10° SSE visible
13 Dec 4.6 05:08:18 10° SSW 05:11:17 23° SE 05:14:14 10° E visible
13 Dec 2.4 21:56:38 10° NW 22:00:13 56° SW 22:03:50 10° SE visible
14 Dec 4.9 04:33:39 10° S 04:36:16 18° SE 04:38:52 10° E visible
14 Dec 1.8 21:21:39 10° NW 21:25:17 79° SW 21:28:57 10° SE visible
14 Dec 5.4 23:02:29 10° SW 23:03:20 11° SSW 23:04:10 10° SSW visible
15 Dec 5.1 03:59:05 10° S 04:01:14 15° SSE 04:03:21 10° ESE visible
15 Dec 1.7 20:46:44 10° NW 20:50:20 73° NE 20:53:59 10° SE visible
15 Dec 5.2 22:26:26 10° WSW 22:28:15 13° SSW 22:30:03 10° S visible
16 Dec 5.3 03:24:41 10° S 03:26:08 12° SSE 03:27:35 10° SE visible
16 Dec 1.7 05:00:27 10° SW 05:04:06 85° NW 05:07:42 10° NE visible
16 Dec 5.0 21:50:46 10° WSW 21:53:08 16° SW 21:55:32 10° S visible
